片源社区

 找回密码
 立即注册
搜索
热搜: 邵氏 系列 合集
订阅

最新回复

标题 版块/群组 作者 回复/查看 最后发表
复仇女尸 The Revenge of the Living Dead Girls (1987) 电影 jgz2020 2025-6-26 0678 jgz2020 2025-6-26 23:35
农奴 (1963) 电影 jgz2020 2025-6-25 0420 jgz2020 2025-6-25 17:55
习性 Habit (1996) 电影 jgz2020 2025-6-25 0556 jgz2020 2025-6-25 17:41
风中的母鸡 風の中の牝雞 A Hen in the Wind (1948) 电影 jgz2020 2025-6-25 0401 jgz2020 2025-6-25 17:21
恋马狂 Equus (1977) 电影 jgz2020 2025-6-25 0562 jgz2020 2025-6-25 17:09
鬼婆 Devil Woman/Onibaba (1964) 电影 jgz2020 2025-6-25 0544 jgz2020 2025-6-25 16:56
日烦夜烦 Trouble Every Day (2001) 电影 jgz2020 2025-6-21 0568 jgz2020 2025-6-21 17:36
首作/初登场 Debiutantka (1982) 电影 jgz2020 2025-6-21 0332 jgz2020 2025-6-21 17:24
神秘肌肤 Mysterious Skin (2004) 电影 jgz2020 2025-6-21 0432 jgz2020 2025-6-21 17:15
恶魔囚笼 The Mafu Cage (1978) 电影 jgz2020 2025-6-17 0586 jgz2020 2025-6-17 23:53
菲德拉 Phaedra (1962) 电影 jgz2020 2025-6-17 0356 jgz2020 2025-6-17 23:44
聊斋艳谭之幽媾 Erotic Ghost Story Perfect Match (1997) 电影 jgz2020 2025-6-17 0453 jgz2020 2025-6-17 23:33
女巫之锤 Kladivo na čarodějnice (1970) 电影 jgz2020 2025-6-16 0324 jgz2020 2025-6-16 23:21
停止呼吸 Deadly Blessing (1981) 电影 jgz2020 2025-6-16 0398 jgz2020 2025-6-16 23:11
午夜之眼 MIDNIGHT EYE ゴクウ (1989) 电影 jgz2020 2025-6-16 0461 jgz2020 2025-6-16 23:00
猪与珠 Montenegro (1981) 电影 jgz2020 2025-6-15 0429 jgz2020 2025-6-15 23:26
麻鹬的哭泣 Doa al karawan (1959) 电影 jgz2020 2025-6-15 0285 jgz2020 2025-6-15 23:12
残虐你,娱乐我 Amusement (2009) 电影 jgz2020 2025-6-15 0418 jgz2020 2025-6-15 22:44
第41号女囚房 女囚さそり 第41雑居房 (1972) 电影 jgz2020 2025-6-15 0362 jgz2020 2025-6-15 22:27
风流冤鬼 風流冤鬼 (1984) 电影 jgz2020 2025-6-10 0367 jgz2020 2025-6-10 23:38
妻之告白 妻は告白する A Wife Confesses (1961) 电影 jgz2020 2025-6-10 0413 jgz2020 2025-6-10 23:28
折磨 Torment (1986) 电影 jgz2020 2025-6-10 0334 jgz2020 2025-6-10 23:15
新不了情 Love Without End (1970) 电影 jgz2020 2025-6-10 0358 jgz2020 2025-6-10 23:08
爱情色香味 Love Recipe (1994) 电影 jgz2020 2025-6-10 0353 jgz2020 2025-6-10 22:49
积木之箱 積木の箱 Tsumiki no hako (1968) 电影 jgz2020 2025-6-5 0385 jgz2020 2025-6-5 23:19
禁域魔怪 Creepozoids (1987) 电影 jgz2020 2025-6-5 0353 jgz2020 2025-6-5 23:00
脑髓地狱 ドグラ・マグラ Dogra Magra (1988) 电影 jgz2020 2025-6-5 0407 jgz2020 2025-6-5 22:50
欲海情魔 Mildred Pierce (1945) 电影 jgz2020 2025-5-31 0434 jgz2020 2025-5-31 23:37
庙街皇后 廟街皇后 Queen of Temple Street (1990) 电影 jgz2020 2025-5-31 0437 jgz2020 2025-5-31 23:22
猛鬼舔人1-2部/Night of the Demons(1988-1994) 系列合集 jgz2020 2025-5-27 0522 jgz2020 2025-5-27 23:53
犯罪元素 Forbrydelsens element (1984) 电影 jgz2020 2025-5-27 0345 jgz2020 2025-5-27 23:05
土耳其狂欢 Turks fruit (1973) [稀有] 电影 jgz2020 2025-5-20 0420 jgz2020 2025-5-20 23:19
庭院里的女人 Pavilion of Women (2001) 电影 jgz2020 2025-5-20 0416 jgz2020 2025-5-20 22:29
邪葬 Funeral siniestro (1977) 电影 jgz2020 2025-5-18 0399 jgz2020 2025-5-18 23:52
仪式 儀式 The Ceremony (1971) 电影 jgz2020 2025-5-18 0412 jgz2020 2025-5-18 23:40
不羁的美女 La belle noiseuse (1991) 电影 jgz2020 2025-5-18 0364 jgz2020 2025-5-18 23:22
接触 Beröringen (1971) 电影 jgz2020 2025-5-18 0439 jgz2020 2025-5-18 22:50
疯狂寻欢 Alla ricerca del piacere (1972)[未删减版] 电影 jgz2020 2025-5-18 0363 jgz2020 2025-5-18 22:33
激情丛林 Tharzan - La vera storia del figlio della giungla (1995) 电影 jgz2020 2025-5-17 01137 jgz2020 2025-5-17 23:47
金瓶风月 金瓶風月 Golden Lotus (1991) 电影 jgz2020 2025-5-17 0449 jgz2020 2025-5-17 23:14
紫蝴蝶 Purple Butterfly (2003) 电影 jgz2020 2025-5-15 0383 jgz2020 2025-5-15 23:40
雍正大破十八铜人 雍正大破十八銅人 (1976) 电影 jgz2020 2025-5-15 0300 jgz2020 2025-5-15 23:26
可怜美玉陷泥淖 The Story of Temple Drake (1933) 电影 jgz2020 2025-5-15 0375 jgz2020 2025-5-15 23:01
恐怖蜘蛛岛 Ein Toter hing im Netz (1960) 电影 jgz2020 2025-5-15 0368 jgz2020 2025-5-15 22:48
淫种 淫種 The Rape After (1984) 电影 jgz2020 2025-5-15 0755 jgz2020 2025-5-15 17:58
寻仇阴阳界 Looking For Enemy in Ying and Yang (1994) 电影 jgz2020 2025-5-15 0381 jgz2020 2025-5-15 17:46
慈禧秘密生活 Lover of the Last Empress (1995)[限制级] 电影 jgz2020 2025-5-14 0525 jgz2020 2025-5-14 17:09
烹夫 My Better Half (1993) 电影 jgz2020 2025-5-14 0430 jgz2020 2025-5-14 16:32
江户川乱步的阴兽 江戸川乱歩の陰獣 (1977) 电影 jgz2020 2025-5-13 0397 jgz2020 2025-5-13 16:33
卿本佳人 Pretty Woman (1991) 电影 jgz2020 2025-5-13 0358 jgz2020 2025-5-13 16:05

本站内容均自动采集自互联网,若收录的资源无意涉及了您的权益,请告诉我们:1218529921@qq.com|小黑屋|片源社区

GMT+8, 2026-5-5 02:23 , Processed in 0.109645 second(s), 12 queries .

Powered by Discuz! X3.4

Copyright © 2001-2020, Tencent Cloud.

返回顶部